Weather History for Sheridan, WY

Change the Weather History Date:

Thursday, December 27, 2012

  Actual Average Record
Temperature  
Mean Temperature 12 °F 22 °F  
Max Temperature 21 °F 35 °F 66 °F (1980)
Min Temperature 2 °F 10 °F -16 °F (1916)
Degree Days  
Heating Degree Days 53 43  
Month to date heating degree days 1070 1138  
Since 1 July heating degree days 2754 3016  
Cooling Degree Days 0 0  
Month to date cooling degree days 0 0  
Year to date cooling degree days 664 419  
Moisture  
Dew Point 8 °F    
Average Humidity 75    
Maximum Humidity 87    
Minimum Humidity 62    
Precipitation  
Precipitation 0.07 in 0.01 in 0.50 in (1946)
Month to date precipitation 0.50 0.49  
Year to date precipitation 9.53 14.09  
Sea Level Pressure  
Sea Level Pressure 29.93 in    
Wind  
Wind Speed 7 mph (NW)    
Max Wind Speed 18 mph    
Max Gust Speed 22 mph    
Visibility 6 miles    
Events Snow    
T = Trace of Precipitation, MM = Missing Value Source: NWS Daily Summary

Daily Weather History Graph

Daily Weather History Graph

Search for Another Location

Airport:

Trip Planner

Search our weather history database for the weather conditions in past years. The results will help you decide how hot, cold, wet, or windy it might be!

Date:

Astronomy

Dec. 27, 2012 Rise Set
Actual Time 7:44 AM MST 4:34 PM MST
Civil Twilight 7:11 AM MST 5:07 PM MST
Nautical Twilight 6:34 AM MST 5:44 PM MST
Astronomical Twilight 5:58 AM MST 6:20 PM MST
Moon 4:21 PM MST (12/27) 6:56 AM MST (12/27)
Length of Visible Light 9h 56m
Length of Day
8h 49m
Full, 100% of the Moon is Illuminated
Dec 27
Full
Dec 28
Full
Jan 4
Last Quarter
Jan 11
New
Jan 18
First Quarter

Hourly Weather History & Observations

Time (MST) Temp. Windchill Dew Point Humidity Pressure Visibility Wind Dir Wind Speed Gust Speed Precip Events Conditions
12:53 AM 10.9 °F -6.5 °F 7.0 °F 84% 29.94 in 1.5 mi WNW 17.3 mph - 0.01 in Snow Light Snow
1:43 AM 10.4 °F -4.1 °F 6.8 °F 85% 29.75 in 2.5 mi WNW 11.5 mph - 0.01 in Snow Light Snow
1:50 AM 10.4 °F -4.1 °F 6.8 °F 85% 29.75 in 3.0 mi WNW 11.5 mph - 0.01 in Snow Light Snow
1:53 AM 10.9 °F -3.4 °F 6.1 °F 81% 29.95 in 3.0 mi WNW 11.5 mph - 0.01 in Snow Light Snow
2:21 AM 10.4 °F -6.0 °F 6.8 °F 85% 29.76 in 3.0 mi WNW 15.0 mph - 0.00 in Snow Light Snow
2:53 AM 10.9 °F -4.7 °F 7.0 °F 84% 29.96 in 2.5 mi WNW 13.8 mph - 0.00 in Snow Light Snow
3:14 AM 10.4 °F -5.4 °F 6.8 °F 85% 29.76 in 1.8 mi WNW 13.8 mph - 0.01 in Snow Light Snow
3:37 AM 12.2 °F -3.7 °F 6.8 °F 79% 29.77 in 2.5 mi WNW 15.0 mph - 0.01 in Snow Light Snow
3:53 AM 12.0 °F -4.0 °F 8.1 °F 84% 29.96 in 1.8 mi NW 15.0 mph - 0.01 in Snow Light Snow
4:08 AM 12.2 °F -2.5 °F 8.6 °F 85% 29.77 in 2.0 mi NW 12.7 mph - 0.01 in Snow Light Snow
4:37 AM 12.2 °F -4.3 °F 8.6 °F 85% 29.77 in 1.8 mi NW 16.1 mph - 0.01 in Snow Light Snow
4:51 AM 12.2 °F -4.3 °F 8.6 °F 85% 29.77 in 1.5 mi NW 16.1 mph - 0.02 in Snow Light Snow
4:53 AM 12.9 °F -2.8 °F 9.0 °F 84% 29.97 in 1.5 mi NW 15.0 mph - 0.02 in Snow Light Snow
5:06 AM 12.2 °F -3.7 °F 8.6 °F 85% 29.78 in 2.0 mi NW 15.0 mph - 0.00 in Snow Light Snow
5:17 AM 12.2 °F -3.1 °F 8.6 °F 85% 29.78 in 1.5 mi NW 13.8 mph - 0.00 in Snow Light Snow
5:37 AM 12.2 °F -4.3 °F 8.6 °F 85% 29.78 in 2.5 mi NW 16.1 mph - 0.01 in Snow Light Snow
5:53 AM 12.9 °F -2.8 °F 8.1 °F 81% 29.98 in 1.8 mi NNW 15.0 mph - 0.01 in Snow Light Snow
6:02 AM 12.2 °F -4.3 °F 8.6 °F 85% 29.79 in 2.0 mi NW 16.1 mph - N/A Snow Light Snow
6:13 AM 12.2 °F -3.1 °F 8.6 °F 85% 29.79 in 1.5 mi NW 13.8 mph - 0.00 in Snow Light Snow
6:28 AM 12.2 °F -4.3 °F 8.6 °F 85% 29.79 in 2.5 mi NW 16.1 mph - 0.01 in Snow Light Snow
6:51 AM 12.2 °F -3.7 °F 8.6 °F 85% 29.80 in 3.0 mi NW 15.0 mph - 0.01 in Snow Light Snow
6:53 AM 12.9 °F -2.8 °F 8.1 °F 81% 30.00 in 3.0 mi NW 15.0 mph - 0.01 in Snow Light Snow
7:28 AM 12.2 °F -3.1 °F 8.6 °F 85% 29.81 in 4.0 mi NW 13.8 mph - 0.00 in Snow Light Snow
7:53 AM 12.9 °F 1.6 °F 8.1 °F 81% 30.01 in 5.0 mi West 8.1 mph - 0.00 in Snow Light Snow
8:53 AM 14.0 °F 1.2 °F 8.1 °F 77% 30.02 in 10.0 mi WNW 10.4 mph - 0.00 in   Overcast
9:53 AM 16.0 °F 5.3 °F 9.0 °F 74% 30.03 in 10.0 mi WNW 8.1 mph - N/A   Overcast
10:53 AM 17.1 °F 5.8 °F 10.0 °F 74% 30.03 in 10.0 mi NW 9.2 mph - N/A   Overcast
11:53 AM 19.0 °F 9.0 °F 10.9 °F 71% 30.01 in 10.0 mi NW 8.1 mph - N/A   Overcast
12:53 PM 19.9 °F 14.9 °F 10.9 °F 68% 30.00 in 10.0 mi NW 3.5 mph - N/A   Overcast
2:53 PM 21.0 °F - 10.0 °F 63% 30.01 in 10.0 mi Calm Calm - N/A   Overcast
3:53 PM 19.9 °F - 10.0 °F 65% 30.03 in 10.0 mi Calm Calm - N/A   Overcast
4:53 PM 17.1 °F 11.7 °F 9.0 °F 71% 30.05 in 10.0 mi West 3.5 mph - N/A   Mostly Cloudy
5:53 PM 15.1 °F - 7.0 °F 70% 30.06 in 10.0 mi Calm Calm - N/A   Overcast
6:53 PM 16.0 °F - 9.0 °F 74% 30.07 in 10.0 mi Calm Calm - N/A   Overcast
7:53 PM 12.2 °F - 6.8 °F 79% 29.88 in 10.0 mi Calm Calm - N/A   Overcast
8:53 PM 5.0 °F - 1.0 °F 84% 30.09 in 10.0 mi Calm Calm - N/A   Clear
9:53 PM 3.0 °F - -0.9 °F 84% 30.11 in 9.0 mi Calm Calm - N/A   Clear
10:53 PM 8.1 °F - 3.0 °F 80% 30.09 in 10.0 mi Calm Calm - N/A   Overcast
11:53 PM 12.0 °F 5.9 °F 7.0 °F 80% 30.06 in 10.0 mi SSW 3.5 mph - N/A   Mostly Cloudy